Temp
68 68 71 71 60 58 55 55 63 63 68 71 72 60 55 58 57 50 64 67 68 68 70 71 72 72 71 71 71 71 70 70 69 69 69 69 69 68 68 68 69 69 69 69 69 68 67 66 65
74 77 72 67 55 49 53 61 59 65 74 73 71 67 60 54 62 60 61 67 69 70 70 70 71 71 71 70 70 70 70 69 69 69 69 69 68 68 68 68 67 67 67 67 67 67 66 65 64
74 80 66 61 55 50 54 68 65 73 79 73 63 64 63 58 62 62 66 69 69 67 69 70 70 70 71 70 70 69 68 68 68 67 67 68 67 68 67 66 65 65 66 66 66 65 64 64 63
75 71 70 59 59 63 63 65 62 64 71 69 65 57 62 67 64 64 68 68 66 66 68 69 69 70 70 69 68 68 67 67 66 66 66 66 66 66 65 65 64 64 65 65 64 64 63 62 62
73 69 58 54 62 63 72 69 69 63 67 63 67 55 56 62 67 66 66 67 65 65 67 68 69 69 69 68 68 67 66 65 65 65 65 65 65 65 64 63 64 64 64 63 63 62 62 62 62
67 69 57 56 61 67 71 69 67 65 66 65 60 57 55 64 63 65 66 65 66 65 65 66 68 68 67 67 67 66 65 65 64 64 64 64 64 64 64 63 63 64 63 63 62 62 62 62 62
64 61 57 65 67 66 68 71 68 67 68 67 66 54 55 59 64 66 66 66 66 64 63 61 61 65 66 66 65 65 64 64 64 63 63 63 63 64 63 63 62 63 62 62 61 61 61 62 62
72 66 62 61 63 64 73 72 73 69 60 70 67 53 52 59 64 66 66 62 61 64 62 59 59 60 58 59 65 65 64 64 64 63 64 66 65 66 65 66 64 62 62 62 62 62 62 64 63
74 61 59 63 69 64 72 67 68 65 58 59 63 61 61 63 65 64 60 62 65 65 64 61 60 59 58 58 62 64 65 65 64 63 65 60 55 56 61 65 64 63 62 62 63 64 64 62 61
67 58 63 74 72 64 63 65 63 59 55 54 55 60 63 64 62 62 61 62 64 61 60 60 59 60 60 66 62 60 60 60 60 61 60 58 55 57 61 61 64 63 64 64 63 63 62 58 49
69 64 73 72 69 68 63 59 65 58 54 56 53 56 59 60 60 62 66 66 60 58 56 58 59 59 57 58 61 61 58 60 59 58 58 57 55 50 52 50 51 51 59 50 52 51 50 49 48
63 75 74 66 69 68 59 60 57 57 57 61 59 60 60 61 65 66 55 54 54 54 56 56 56 54 55 59 56 55 59 57 55 56 57 51 48 47 46 48 49 50 47 46 46 46 49 48 50
68 73 74 66 63 60 61 56 56 57 62 64 64 65 64 63 56 56 54 54 54 52 54 54 54 52 55 57 54 53 52 52 53 53 52 48 46 45 45 47 47 45 45 44 44 47 45 45 47
74 74 71 67 64 65 56 56 57 58 64 57 56 54 54 56 55 53 52 53 52 53 52 52 52 53 58 53 53 50 51 51 50 49 48 49 46 44 44 44 46 44 43 44 44 43 42 42 44
77 69 71 67 66 59 60 51 51 59 56 53 52 51 51 51 52 50 52 50 52 51 53 52 52 55 55 54 53 51 51 53 49 48 48 48 47 44 43 42 42 42 43 44 43 43 43 42 45
67 66 59 67 67 62 63 46 54 58 53 49 49 49 47 48 49 49 50 49 50 52 52 53 60 55 53 52 51 51 51 48 48 47 46 48 48 46 43 42 42 42 43 42 41 40 40 40 40
61 54 59 66 72 64 60 48 54 55 52 48 47 47 47 46 47 48 49 50 52 53 54 53 54 52 51 51 50 49 49 48 47 46 45 48 48 48 43 42 41 42 41 40 40 42 39 38 38
54 56 60 61 56 57 50 48 52 53 51 48 46 46 45 45 45 48 50 53 54 53 56 54 53 51 50 49 48 48 47 47 46 45 46 47 46 47 44 42 42 42 40 39 40 39 38 38 38
66 64 62 64 62 55 49 49 48 51 49 46 45 45 44 45 48 51 53 54 54 57 54 51 50 48 48 46 43 44 43 44 45 46 47 46 45 46 43 41 41 40 39 38 40 37 36 37 37
66 63 58 64 62 53 49 48 49 50 49 48 46 45 44 46 48 51 53 54 55 53 51 50 49 48 46 45 43 42 42 43 43 44 45 46 45 44 46 40 39 39 39 38 37 36 33 33 36
65 62 62 62 61 55 49 45 46 50 51 49 48 47 47 47 49 52 53 53 55 52 49 49 48 47 46 46 44 44 44 44 42 41 41 43 45 44 42 41 39 38 37 37 34 34 33 32 36
59 71 71 66 58 46 57 38 46 46 45 46 46 46 46 48 52 52 52 53 52 48 49 49 48 47 48 45 42 40 38 38 39 39 40 41 44 43 43 41 39 38 36 35 34 40 32 31 32
66 73 68 67 57 53 53 44 42 47 43 44 45 46 48 50 50 51 53 55 52 48 47 47 47 47 46 44 43 40 38 38 39 39 40 40 41 42 43 41 38 37 36 35 34 33 32 31 31
75 67 65 61 56 46 53 52 44 44 48 46 46 48 49 50 51 53 56 57 53 52 47 45 46 46 45 44 43 41 39 39 38 38 38 38 39 40 41 41 38 37 36 35 34 33 32 31 30
68 57 46 44 44 43 59 51 47 55 57 48 45 48 49 51 50 52 55 54 53 49 48 49 46 45 44 43 43 42 41 40 39 38 37 37 37 37 38 37 36 36 36 36 35 32 32 31 30
62 58 47 41 43 50 61 46 43 52 53 50 50 50 50 49 52 54 55 54 54 53 47 47 46 45 44 44 43 42 42 40 40 39 38 37 37 37 38 37 37 37 37 36 34 31 31 32 30
62 57 64 54 56 48 47 47 50 51 48 49 49 49 48 50 51 55 55 55 53 48 46 45 45 45 45 44 42 41 41 41 39 39 38 37 38 42 40 37 36 37 37 36 33 30 30 31 34
66 69 54 53 46 40 44 43 42 44 45 48 47 47 50 51 53 55 55 54 53 47 45 45 45 44 44 43 42 42 41 42 41 40 38 38 37 38 37 37 37 36 36 35 32 30 31 33 32
62 59 61 59 56 43 40 41 53 47 47 46 48 51 50 51 53 53 54 55 51 46 44 44 44 44 43 43 42 41 40 41 40 39 39 38 37 38 38 38 38 37 36 34 30 30 33 31 30
68 63 61 50 51 51 44 41 58 52 51 52 54 54 53 54 51 54 53 53 47 46 44 43 43 43 43 43 42 41 41 41 39 39 39 38 38 38 38 39 38 39 37 32 30 30 31 30 29
MSLP
1010.19 1010.47 1010.57 1010.79 1011.75 1012.41 1013.69 1013.92 1013.39 1011.42 1011.11 1010.86 1009.30 1011.02 1014.59 1016.04 1017.14 1019.42 1020.35 1020.35 1020.73 1020.94 1021.11 1021.29 1021.48 1021.59 1021.89 1022.05 1022.18 1022.34 1022.49 1022.62 1022.68 1022.69 1022.71 1022.67 1022.57 1022.60 1022.44 1022.29 1022.15 1021.96 1021.81 1021.71 1021.56 1021.49 1021.47 1021.38 1021.23
1009.91 1010.53 1010.78 1010.71 1011.79 1013.25 1013.26 1013.53 1013.07 1010.49 1010.58 1010.41 1011.17 1013.34 1015.11 1017.62 1018.29 1019.58 1020.43 1020.77 1020.85 1021.15 1021.42 1021.56 1021.79 1021.90 1022.09 1022.29 1022.45 1022.68 1022.93 1022.98 1022.97 1023.01 1022.93 1022.84 1022.79 1022.80 1022.80 1022.70 1022.60 1022.45 1022.30 1022.16 1021.96 1021.78 1021.78 1021.68 1021.49
1010.00 1010.04 1010.59 1010.77 1011.86 1012.97 1012.97 1013.03 1012.89 1012.64 1010.64 1010.19 1012.88 1015.03 1016.89 1018.90 1019.64 1020.11 1020.59 1020.67 1021.01 1021.43 1021.71 1021.84 1021.98 1022.17 1022.29 1022.47 1022.82 1023.15 1023.34 1023.40 1023.44 1023.44 1023.40 1023.35 1023.30 1023.09 1023.00 1023.16 1023.00 1022.96 1022.80 1022.57 1022.36 1022.24 1022.14 1022.00 1021.86
1009.74 1010.06 1010.17 1010.70 1012.07 1012.27 1012.43 1013.79 1014.06 1012.33 1011.41 1011.79 1013.36 1016.11 1018.33 1019.10 1019.96 1020.57 1020.80 1021.02 1021.30 1021.68 1021.91 1022.13 1022.32 1022.45 1022.53 1022.85 1023.11 1023.28 1023.43 1023.49 1023.62 1023.68 1023.73 1023.65 1023.58 1023.56 1023.58 1023.57 1023.54 1023.30 1023.13 1022.90 1022.72 1022.57 1022.43 1022.27 1021.95
1009.65 1009.57 1010.31 1010.96 1011.95 1011.77 1010.66 1012.58 1012.90 1013.12 1012.26 1014.72 1014.63 1018.04 1019.37 1020.74 1020.41 1020.86 1021.19 1021.35 1021.68 1021.93 1022.28 1022.61 1022.80 1022.80 1022.98 1023.21 1023.45 1023.65 1023.81 1023.98 1023.94 1023.95 1024.01 1023.97 1023.91 1023.84 1023.78 1023.79 1023.68 1023.49 1023.33 1023.09 1022.86 1022.70 1022.45 1022.20 1022.03
1009.33 1009.19 1010.15 1010.54 1010.35 1009.81 1011.05 1012.09 1011.57 1013.53 1012.05 1014.60 1017.21 1018.05 1020.06 1020.90 1021.01 1021.16 1021.34 1021.64 1021.82 1022.14 1022.68 1023.01 1023.17 1023.32 1023.53 1023.61 1023.81 1023.97 1024.15 1024.21 1024.17 1024.10 1024.08 1024.10 1024.09 1024.10 1023.97 1023.79 1023.61 1023.39 1023.23 1023.06 1022.94 1022.78 1022.51 1022.29 1022.10
1009.08 1009.57 1009.45 1009.31 1009.21 1008.82 1010.22 1011.87 1012.21 1013.19 1013.14 1013.89 1014.85 1018.05 1020.26 1020.94 1021.19 1021.40 1021.45 1021.86 1022.15 1022.47 1022.93 1023.25 1023.61 1023.74 1023.93 1023.94 1023.99 1024.01 1024.05 1024.16 1024.07 1024.05 1024.13 1024.14 1024.06 1024.05 1023.97 1023.64 1023.49 1023.28 1023.11 1023.09 1023.07 1022.83 1022.62 1022.30 1021.95
1008.08 1009.05 1008.91 1008.64 1008.61 1009.25 1010.34 1011.13 1012.77 1013.85 1014.85 1014.97 1015.28 1017.72 1019.89 1020.53 1021.11 1021.38 1021.77 1022.40 1022.65 1022.71 1023.07 1023.63 1023.69 1023.90 1024.16 1024.38 1024.23 1024.12 1024.10 1024.09 1024.00 1023.92 1023.99 1023.88 1023.76 1023.66 1023.53 1023.25 1023.25 1023.24 1023.08 1022.95 1022.79 1022.49 1022.25 1021.73 1021.65
1007.37 1008.66 1008.71 1008.38 1008.63 1010.14 1010.66 1012.03 1014.20 1015.90 1015.96 1016.50 1016.82 1017.80 1019.29 1020.48 1021.16 1021.21 1022.35 1022.69 1022.70 1022.88 1023.35 1024.07 1024.26 1024.44 1024.36 1024.14 1024.14 1024.07 1024.03 1023.95 1023.95 1024.07 1023.98 1024.00 1024.02 1023.81 1023.71 1023.32 1023.17 1023.13 1023.02 1022.66 1022.42 1022.03 1021.90 1021.76 1021.65
1007.60 1008.32 1008.16 1007.97 1009.24 1011.22 1012.21 1012.46 1014.24 1016.29 1017.34 1018.54 1019.04 1019.62 1020.37 1020.99 1021.13 1021.71 1022.22 1022.47 1022.73 1023.62 1024.12 1024.48 1024.59 1024.49 1024.47 1024.12 1024.19 1024.15 1024.05 1023.86 1024.09 1024.15 1024.02 1024.18 1024.18 1024.02 1023.89 1023.72 1023.32 1023.16 1022.68 1022.38 1022.26 1022.11 1021.95 1021.95 1021.76
1007.15 1007.78 1007.52 1008.93 1009.63 1010.52 1012.42 1013.83 1015.48 1016.70 1018.46 1019.59 1019.81 1020.08 1020.83 1021.28 1021.77 1021.88 1022.10 1022.32 1023.63 1024.27 1024.52 1024.79 1024.87 1024.98 1025.05 1025.04 1024.39 1024.25 1023.95 1024.09 1024.26 1024.22 1024.31 1024.40 1024.54 1024.52 1024.48 1024.27 1023.95 1023.60 1023.10 1023.11 1022.78 1022.53 1022.23 1022.16 1021.79
1007.17 1006.80 1007.24 1009.59 1010.24 1011.27 1013.08 1015.52 1017.08 1017.18 1019.20 1020.28 1020.72 1020.62 1021.12 1021.49 1021.56 1021.96 1023.43 1023.96 1024.37 1024.71 1025.28 1025.39 1025.60 1025.61 1025.45 1025.14 1025.06 1024.90 1024.51 1024.49 1024.46 1024.42 1024.48 1024.74 1024.99 1025.14 1025.03 1024.74 1024.37 1023.94 1023.87 1023.41 1023.11 1022.74 1022.46 1022.16 1021.68
1006.90 1006.94 1007.92 1009.58 1010.67 1012.74 1013.89 1016.19 1017.23 1019.05 1019.92 1020.45 1020.77 1020.95 1021.17 1021.82 1023.14 1023.80 1024.03 1024.65 1024.98 1025.32 1025.84 1026.02 1026.22 1026.13 1025.74 1025.38 1025.47 1025.20 1024.95 1024.83 1024.80 1024.91 1025.01 1025.24 1025.43 1025.52 1025.32 1025.08 1024.69 1024.44 1023.97 1023.60 1023.28 1022.81 1022.72 1022.32 1021.99
1006.62 1006.87 1008.32 1009.81 1010.77 1012.57 1014.03 1017.04 1017.88 1020.27 1020.43 1021.38 1021.62 1022.35 1023.07 1023.41 1024.24 1024.54 1024.82 1025.25 1025.44 1025.90 1026.28 1026.50 1026.43 1026.14 1025.63 1025.63 1025.40 1025.45 1025.03 1024.98 1025.17 1025.36 1025.43 1025.35 1025.47 1025.71 1025.57 1025.36 1024.96 1024.63 1024.10 1023.62 1023.25 1023.09 1022.83 1022.51 1022.10
1006.62 1007.16 1007.48 1009.16 1010.26 1012.85 1012.41 1017.48 1019.39 1020.38 1021.26 1022.16 1023.01 1023.81 1024.31 1024.89 1025.01 1025.40 1025.78 1025.87 1025.99 1026.22 1026.38 1026.62 1026.59 1026.14 1025.88 1025.49 1025.38 1025.29 1025.08 1024.97 1025.20 1025.41 1025.38 1025.33 1025.40 1025.69 1025.59 1025.48 1025.12 1024.77 1024.10 1023.63 1023.31 1023.06 1022.74 1022.52 1022.02
1007.42 1007.31 1007.76 1008.30 1009.91 1011.54 1012.51 1018.43 1020.10 1020.82 1021.67 1023.07 1023.88 1024.68 1025.22 1025.77 1025.97 1026.29 1026.37 1026.27 1026.27 1026.33 1026.59 1026.48 1026.05 1026.22 1026.06 1025.86 1025.69 1025.65 1025.58 1025.50 1025.43 1025.47 1025.45 1025.31 1025.27 1025.40 1025.41 1025.37 1025.11 1024.71 1024.19 1023.87 1023.67 1023.24 1022.88 1022.48 1022.13
1007.88 1007.91 1007.93 1007.93 1008.70 1011.29 1013.74 1018.40 1020.32 1021.45 1022.27 1023.60 1024.55 1025.31 1025.90 1026.30 1026.59 1026.75 1026.69 1026.45 1026.45 1026.49 1026.62 1026.62 1026.51 1026.64 1026.53 1026.25 1026.05 1025.94 1025.84 1025.68 1025.53 1025.61 1025.51 1025.38 1025.32 1025.14 1025.18 1025.10 1025.00 1024.51 1024.26 1024.01 1023.65 1023.27 1022.76 1022.40 1021.95
1008.08 1007.93 1007.62 1008.55 1010.69 1011.75 1014.95 1017.99 1020.21 1021.67 1022.74 1024.01 1025.01 1025.70 1026.31 1026.76 1027.03 1027.03 1026.80 1026.61 1026.43 1026.58 1026.71 1026.75 1026.91 1026.93 1026.89 1026.84 1026.63 1026.40 1026.28 1026.01 1025.94 1025.87 1025.76 1025.66 1025.41 1025.15 1025.09 1024.97 1024.67 1024.41 1024.35 1024.12 1023.68 1023.30 1022.79 1022.32 1021.84
1007.31 1007.33 1007.62 1007.82 1010.35 1012.44 1015.59 1018.09 1020.23 1021.72 1022.91 1024.07 1025.02 1025.75 1026.37 1026.84 1027.10 1026.96 1026.72 1026.55 1026.75 1026.49 1026.82 1027.09 1027.27 1027.42 1027.46 1027.50 1027.52 1027.31 1027.26 1026.84 1026.48 1026.20 1025.99 1025.81 1025.60 1025.26 1025.10 1025.09 1025.07 1024.82 1024.56 1024.18 1023.73 1023.27 1022.86 1022.43 1021.96
1006.66 1006.72 1007.33 1007.90 1009.77 1012.09 1016.53 1018.55 1020.42 1021.80 1022.95 1023.91 1024.94 1025.83 1026.40 1026.70 1026.90 1026.83 1026.54 1026.58 1026.77 1026.77 1027.09 1027.32 1027.58 1027.75 1027.92 1027.97 1027.93 1027.77 1027.54 1027.16 1026.81 1026.55 1026.33 1026.00 1025.81 1025.49 1025.23 1025.37 1025.20 1024.85 1024.53 1024.21 1023.79 1023.41 1023.26 1022.76 1022.25
1005.61 1005.74 1006.08 1007.47 1009.72 1012.92 1015.46 1018.74 1020.57 1021.63 1022.58 1023.80 1024.78 1025.73 1026.38 1026.56 1026.54 1026.47 1026.41 1026.57 1026.71 1027.00 1027.34 1027.59 1027.83 1027.99 1028.10 1027.96 1027.99 1027.78 1027.49 1027.25 1027.15 1027.09 1026.79 1026.45 1025.98 1025.64 1025.50 1025.33 1025.17 1024.89 1024.59 1024.30 1023.89 1023.48 1023.26 1023.03 1022.39
1004.88 1004.53 1005.22 1006.75 1008.57 1011.62 1012.58 1016.98 1019.61 1021.15 1022.64 1023.84 1025.05 1025.66 1026.11 1026.32 1026.36 1026.40 1026.35 1026.49 1026.65 1027.25 1027.33 1027.74 1027.92 1028.02 1028.00 1028.08 1028.26 1028.22 1028.34 1028.19 1027.81 1027.54 1027.09 1026.73 1026.10 1025.82 1025.48 1025.24 1025.09 1024.81 1024.53 1024.28 1023.75 1023.14 1023.16 1022.92 1022.56
1004.10 1004.05 1004.80 1005.81 1007.61 1009.30 1011.70 1014.81 1018.64 1020.12 1021.76 1023.40 1024.65 1025.38 1025.77 1025.87 1026.17 1026.17 1026.20 1026.36 1026.95 1027.37 1027.59 1027.83 1028.00 1028.10 1028.12 1028.22 1028.37 1028.39 1028.48 1028.19 1027.87 1027.63 1027.24 1026.82 1026.26 1025.78 1025.43 1025.19 1024.95 1024.68 1024.39 1024.00 1023.63 1023.34 1023.02 1022.68 1022.40
1003.68 1004.08 1004.74 1005.66 1007.26 1009.28 1011.70 1013.75 1017.17 1018.10 1018.95 1021.86 1023.83 1024.74 1025.30 1025.82 1025.94 1026.01 1026.25 1026.34 1026.95 1027.28 1027.90 1028.19 1028.24 1028.35 1028.36 1028.42 1028.47 1028.48 1028.44 1028.28 1028.07 1027.72 1027.32 1026.83 1026.42 1025.86 1025.40 1025.11 1024.76 1024.43 1024.10 1023.69 1023.37 1023.00 1022.69 1022.29 1022.02
1003.59 1004.61 1005.77 1006.86 1007.97 1009.53 1010.85 1013.47 1016.24 1016.28 1017.63 1019.91 1022.24 1023.93 1024.92 1025.48 1025.77 1025.94 1026.01 1026.43 1027.06 1027.75 1028.20 1028.18 1028.50 1028.68 1028.54 1028.56 1028.57 1028.49 1028.34 1028.13 1027.90 1027.61 1027.28 1026.91 1026.47 1025.99 1025.49 1025.07 1024.68 1024.30 1023.75 1023.26 1022.87 1022.66 1022.28 1022.07 1021.81
1003.47 1004.37 1005.69 1006.83 1008.01 1009.23 1011.48 1014.46 1017.48 1018.01 1018.53 1021.06 1022.68 1023.84 1024.81 1025.40 1025.50 1025.64 1025.80 1026.35 1026.89 1027.74 1028.20 1028.42 1028.72 1028.81 1028.68 1028.69 1028.58 1028.47 1028.28 1028.09 1027.82 1027.51 1027.18 1026.84 1026.44 1025.94 1025.38 1024.92 1024.46 1023.91 1023.32 1022.89 1022.53 1022.36 1022.10 1021.76 1021.35
1002.98 1003.65 1004.35 1006.13 1007.23 1009.09 1012.91 1016.11 1018.18 1019.53 1020.47 1021.78 1022.82 1023.89 1024.64 1025.07 1025.37 1025.59 1025.78 1026.45 1027.35 1027.91 1028.32 1028.64 1028.80 1028.90 1028.81 1028.72 1028.53 1028.47 1028.27 1028.03 1027.82 1027.50 1027.12 1026.85 1026.29 1025.61 1025.14 1024.79 1024.28 1023.63 1023.16 1022.67 1022.27 1022.25 1021.84 1021.41 1020.78
1002.09 1002.96 1004.43 1005.65 1007.28 1009.63 1012.73 1014.94 1017.02 1019.53 1020.65 1021.78 1022.97 1023.70 1024.21 1024.62 1025.15 1025.31 1026.04 1026.68 1027.48 1028.10 1028.54 1028.62 1028.80 1029.03 1028.87 1028.71 1028.60 1028.60 1028.37 1028.07 1027.68 1027.41 1027.20 1026.80 1026.27 1025.65 1025.17 1024.60 1024.03 1023.44 1022.85 1022.33 1022.36 1022.10 1021.56 1021.02 1020.29
1002.10 1002.77 1003.67 1004.74 1006.48 1008.93 1011.74 1013.89 1014.71 1017.55 1019.82 1021.01 1022.24 1022.88 1023.61 1024.43 1024.99 1025.35 1026.28 1026.85 1027.79 1028.32 1028.72 1028.97 1029.06 1029.12 1029.01 1028.82 1028.82 1028.67 1028.44 1028.11 1027.80 1027.57 1027.16 1026.73 1026.22 1025.56 1025.01 1024.36 1023.86 1023.28 1022.72 1022.48 1022.20 1021.78 1021.16 1020.52 1019.77
1001.35 1002.29 1003.03 1004.63 1006.24 1007.72 1010.62 1013.72 1014.51 1017.01 1019.09 1020.34 1021.37 1022.25 1023.30 1024.30 1024.83 1025.47 1026.55 1027.20 1027.99 1028.42 1028.93 1029.19 1029.26 1029.24 1029.07 1028.92 1028.90 1028.77 1028.54 1028.27 1028.03 1027.63 1027.17 1026.63 1026.22 1025.52 1024.91 1024.24 1023.71 1023.07 1022.49 1022.36 1022.04 1021.55 1020.92 1020.14 1019.26
Wind_Speed
6 6 1 3 5 5 3 10 4 11 4 7 19 18 18 13 7 10 7 13 13 10 10 11 15 15 15 14 14 13 12 12 12 11 10 12 12 12 12 12 13 15 15 14 15 16 17 17 18
3 5 1 2 5 3 3 16 13 22 8 16 19 16 14 11 9 12 6 10 12 10 8 10 17 16 15 14 13 12 13 11 12 11 12 13 12 11 12 13 15 15 15 16 15 15 16 17 18
1 4 2 3 3 2 1 3 7 24 10 10 10 14 8 5 6 4 11 11 13 12 10 12 16 15 14 12 13 13 11 11 11 12 11 11 12 11 13 14 14 14 15 15 16 15 16 17 17
3 2 4 5 9 3 4 17 20 22 11 12 18 14 8 7 4 7 13 14 14 11 10 12 14 14 15 13 12 10 9 11 10 10 10 10 11 12 12 12 13 14 15 15 15 15 16 16 17
2 1 2 5 4 12 5 18 22 21 16 25 4 8 7 8 16 13 13 12 13 11 9 10 13 15 14 12 11 9 10 9 9 10 9 9 9 8 7 9 11 13 14 14 15 16 16 17 16
3 2 3 5 10 9 11 13 20 15 16 14 10 10 5 9 12 11 12 12 11 12 9 9 14 15 13 11 9 9 8 7 6 6 6 5 5 5 6 5 7 11 12 14 13 14 16 16 15
4 3 6 9 10 8 8 14 9 7 6 6 20 8 7 10 10 11 11 10 11 11 10 8 7 10 12 11 9 7 5 4 3 1 2 3 3 5 4 4 5 8 8 10 9 12 14 16 16
4 3 10 3 5 4 7 7 12 7 6 3 14 9 8 9 13 10 10 8 8 10 9 8 7 7 7 4 6 5 5 5 5 2 4 12 5 8 9 12 6 6 7 10 12 10 14 16 13
3 3 7 8 4 8 16 10 8 11 13 9 7 9 19 17 13 10 6 8 8 8 8 6 5 5 5 5 5 6 7 8 6 2 5 9 4 7 10 13 8 9 11 12 11 13 18 16 11
3 2 10 3 19 19 22 12 11 9 14 14 19 20 17 14 11 12 10 9 10 13 12 8 7 7 7 5 4 5 6 4 1 1 6 5 6 8 11 14 19 21 21 13 14 16 16 12 5
7 7 9 11 20 14 14 27 9 15 12 9 19 18 14 9 10 9 13 10 17 14 11 10 10 11 10 6 5 4 3 3 4 6 5 5 5 5 6 5 6 6 14 4 7 6 5 7 5
2 9 3 1 6 8 14 11 21 19 13 17 14 15 12 11 11 10 18 15 15 15 13 12 10 7 7 4 4 4 4 4 3 4 6 6 4 5 5 5 7 6 4 6 5 4 7 7 7
4 6 9 21 26 23 26 21 20 17 16 15 13 10 7 13 20 16 16 14 13 14 11 10 7 5 6 5 4 4 5 5 4 5 8 5 5 5 5 6 6 5 4 4 5 7 5 6 6
6 7 8 16 16 11 24 12 7 9 12 18 20 19 18 19 16 14 14 13 13 10 9 5 2 7 5 3 5 2 4 4 4 5 5 6 5 4 4 5 6 5 4 5 5 5 4 4 5
10 7 7 17 11 12 26 16 10 11 17 17 17 14 15 15 15 14 11 11 9 7 4 2 6 6 2 3 4 2 2 3 3 5 6 6 6 4 5 5 5 4 5 7 6 5 5 5 6
7 6 4 6 10 10 12 7 9 11 16 14 13 12 11 12 12 10 9 8 5 4 2 5 4 8 8 5 5 5 4 3 3 4 3 4 5 4 4 4 5 5 5 5 4 4 4 5 5
5 8 8 10 13 11 4 12 11 13 14 12 10 9 9 9 9 7 5 4 3 4 4 3 7 8 9 8 6 6 6 4 3 4 2 4 4 3 3 4 4 5 5 4 5 6 5 5 5
7 7 8 7 4 20 18 15 14 11 12 10 9 8 7 7 6 4 3 4 4 4 4 8 7 8 8 7 6 6 6 5 4 3 5 6 4 5 4 4 5 5 4 5 6 7 5 4 5
13 14 12 11 16 12 16 18 14 12 12 10 8 8 7 7 4 4 4 5 5 3 8 7 8 7 6 5 4 5 4 4 4 5 7 7 6 6 5 4 6 5 5 6 7 4 6 5 5
15 14 2 3 16 15 14 15 14 11 9 10 10 8 8 7 6 6 6 3 1 7 7 8 8 8 6 4 3 3 2 3 2 4 6 8 7 7 6 5 5 6 5 6 6 6 4 3 5
10 6 5 8 13 16 20 8 7 8 9 10 10 9 8 8 7 6 4 3 6 8 7 8 7 7 6 5 3 4 4 5 5 4 4 5 8 7 6 6 5 6 5 5 5 5 6 5 6
7 7 8 10 8 8 12 5 6 8 8 9 10 9 9 9 5 4 4 4 8 6 7 7 7 7 5 6 4 5 2 3 3 2 3 5 8 7 5 6 6 6 4 6 4 6 4 4 7
10 5 4 11 7 6 3 9 3 11 8 11 11 11 10 8 6 7 5 5 9 7 5 6 7 7 5 6 5 4 4 3 3 3 6 6 6 7 6 5 6 6 4 5 6 6 6 3 5
7 3 4 4 2 3 5 6 5 7 13 17 14 13 12 8 8 5 3 12 8 8 8 6 7 4 7 6 7 6 5 5 5 5 4 5 4 4 6 5 6 6 5 5 5 5 7 6 4
6 4 1 3 2 6 5 8 5 9 10 21 20 17 13 9 7 5 8 11 8 8 8 6 5 6 6 7 6 5 5 5 5 5 4 6 4 3 6 5 6 4 6 6 5 5 6 5 5
8 9 7 7 5 1 7 6 5 13 19 18 15 15 12 9 7 6 10 8 7 9 8 7 6 6 7 6 5 4 5 3 4 4 4 4 3 5 6 6 6 7 7 6 6 4 4 6 5
5 6 8 3 4 6 6 7 11 13 16 15 16 14 12 10 7 10 10 8 9 7 7 7 7 6 6 4 4 5 5 6 5 7 5 4 5 6 7 7 7 8 7 7 6 2 5 5 11
9 7 2 3 6 4 6 7 9 13 15 16 14 13 13 9 8 10 10 7 8 7 7 8 7 5 4 4 5 4 6 6 6 5 7 7 6 7 7 7 7 7 7 7 4 4 6 11 11
5 3 4 6 6 6 7 4 14 20 18 18 16 15 12 9 10 13 7 9 9 7 7 7 7 6 6 5 5 6 6 7 6 6 6 6 6 7 7 8 7 7 7 5 4 6 11 14 12
9 9 7 5 3 3 5 1 18 21 20 18 16 15 11 14 9 12 11 9 7 7 7 6 6 5 5 5 5 6 6 7 6 6 7 7 7 7 7 8 7 9 7 3 6 8 11 13 12
Wind_Direction
137 156 178 21 55 58 50 312 300 270 309 27 61 77 90 50 22 110 106 107 116 115 117 115 114 103 98 97 97 88 81 67 63 59 56 48 41 33 33 37 27 16 13 7 3 4 4 0 358
169 167 306 266 80 61 201 212 221 233 166 117 85 79 53 66 60 108 110 121 122 123 104 108 109 106 103 96 89 82 71 63 62 51 44 40 38 32 35 25 22 15 9 4 1 2 359 357 354
309 240 110 136 113 184 299 51 342 320 167 66 105 55 54 69 46 67 123 126 99 98 108 115 112 110 103 92 85 77 70 63 54 48 40 37 33 30 33 22 23 14 5 3 0 359 354 351 346
176 1 323 75 45 304 207 78 47 311 53 60 110 79 90 20 86 117 115 107 101 105 110 110 110 102 97 96 91 91 85 74 62 51 39 38 36 33 33 27 20 17 6 2 359 355 349 345 341
255 289 68 92 324 249 354 89 86 27 41 19 33 90 83 61 106 109 114 115 115 111 103 97 99 97 94 95 96 88 79 68 62 46 36 34 35 33 37 36 26 15 5 358 355 353 347 340 336
323 117 14 171 227 205 90 104 106 91 110 194 90 101 78 125 120 124 125 127 127 114 100 99 103 101 99 99 94 86 80 78 65 43 35 29 19 13 8 46 12 9 11 359 356 348 348 346 341
201 107 249 314 91 127 150 124 105 158 143 89 130 98 120 146 134 138 134 135 127 118 120 117 99 115 112 106 110 123 128 132 124 87 348 316 316 302 299 320 326 350 354 345 339 329 329 329 333
190 104 296 231 287 86 145 117 123 67 19 29 139 145 161 154 148 141 138 144 140 141 130 121 134 129 123 127 145 169 180 187 200 195 347 354 346 332 315 335 292 303 316 311 303 307 302 322 326
292 1 285 302 167 96 105 116 58 68 58 43 3 125 129 145 154 141 156 166 148 135 105 111 120 111 139 164 199 208 219 222 229 255 348 17 358 2 345 358 326 304 296 281 307 330 344 21 7
134 152 253 316 104 91 65 62 128 75 68 74 88 101 125 148 159 168 174 152 131 92 78 70 51 38 26 21 349 239 243 244 96 197 39 25 15 9 357 353 358 348 342 2 0 359 349 349 334
263 215 263 72 115 103 96 52 49 128 70 104 127 127 138 160 190 173 150 111 80 79 68 55 40 29 19 344 343 348 15 74 72 64 53 38 21 5 4 354 348 340 332 3 10 353 348 329 324
292 272 275 218 89 95 87 92 67 65 106 126 134 145 157 181 184 165 84 87 80 71 58 47 35 20 344 329 339 333 30 32 75 76 55 46 31 14 354 353 345 335 340 2 349 338 328 316 327
301 276 85 107 92 88 97 83 90 95 119 141 146 146 145 87 84 80 83 77 79 70 57 46 25 353 287 340 328 28 25 22 16 46 56 46 28 17 5 347 333 336 339 350 333 335 317 338 340
292 329 118 124 123 119 101 95 88 116 124 78 69 61 61 67 80 79 68 75 72 73 58 40 310 276 323 12 9 48 42 29 48 69 69 50 38 24 6 344 328 334 336 324 330 306 335 342 331
289 305 307 138 143 130 114 50 92 122 101 89 84 73 67 64 65 71 81 81 84 77 108 214 276 288 356 329 314 41 24 39 55 89 64 52 45 19 7 335 320 314 328 330 327 338 346 339 328
332 305 251 170 160 168 61 124 139 120 108 101 96 89 76 71 74 75 76 84 92 121 171 257 34 19 355 353 32 32 0 37 42 81 69 47 53 24 10 330 314 309 330 326 327 330 320 309 296
288 250 243 267 168 123 98 133 153 121 114 110 102 97 98 91 80 74 81 111 184 198 234 106 51 28 11 10 27 19 4 27 23 76 41 17 49 357 5 314 314 325 332 336 331 326 309 302 301
250 269 261 176 43 80 92 119 132 132 120 117 114 110 107 107 95 103 158 227 240 268 132 78 62 40 23 12 12 10 2 349 20 29 36 27 337 356 342 335 317 344 350 336 324 317 314 283 293
242 258 276 121 147 84 116 134 135 135 125 134 136 135 128 121 149 188 225 237 251 120 73 79 71 44 41 9 9 8 342 342 4 12 37 4 2 348 347 347 2 354 343 321 327 296 320 323 326
239 255 117 115 111 93 135 132 134 149 155 155 148 144 142 138 169 205 233 193 226 91 83 75 76 59 43 29 356 5 341 324 339 16 6 3 352 355 15 29 0 342 343 336 326 331 328 303 333
268 218 242 173 76 93 121 113 157 154 144 145 144 146 149 158 170 185 201 208 150 88 86 87 88 77 60 39 14 358 358 358 3 355 346 349 354 357 38 18 358 350 341 326 326 330 341 322 326
265 226 251 134 135 181 216 143 176 163 149 152 149 154 160 171 165 203 220 236 115 104 82 96 93 86 70 43 41 43 16 341 304 321 339 346 347 350 10 9 358 343 325 329 310 332 309 325 318
239 285 240 227 188 89 237 94 85 155 194 177 167 166 174 158 182 219 223 133 102 100 100 103 96 86 70 55 55 40 10 327 311 339 359 336 331 339 343 354 339 327 320 306 312 320 317 296 300
257 179 285 340 77 357 22 97 221 188 201 172 170 170 156 167 207 224 223 110 107 80 61 64 91 76 68 57 35 35 14 349 358 334 331 321 316 320 325 329 320 317 310 304 301 299 306 296 301
249 95 295 334 324 232 206 73 42 223 184 165 163 155 156 167 207 224 133 109 106 92 66 51 68 66 62 53 29 21 7 349 340 327 314 329 322 305 320 314 324 308 296 301 297 297 302 313 304
206 162 168 205 182 235 79 156 39 61 97 127 133 137 144 180 220 167 121 117 104 108 91 59 57 61 54 46 10 3 5 343 329 322 329 326 316 309 314 322 318 309 303 300 300 312 330 320 297
233 212 212 236 251 91 124 99 92 99 110 126 132 142 165 193 183 134 109 100 111 109 99 84 65 55 45 20 4 10 3 357 339 343 346 326 319 328 332 318 312 307 311 303 313 345 319 304 309
155 205 186 279 214 144 157 175 150 145 142 143 152 169 181 171 160 118 104 106 99 105 100 76 69 63 20 3 11 29 2 357 349 0 345 336 325 323 322 316 311 311 308 308 21 326 302 317 318
242 240 247 157 120 190 145 219 169 156 159 158 173 165 168 155 142 114 124 99 106 103 90 79 65 42 4 10 46 29 6 345 4 354 333 337 327 321 320 315 314 310 309 5 343 321 325 319 312
191 202 188 136 205 103 87 344 140 148 156 161 158 164 152 140 135 113 108 110 94 83 88 82 66 34 11 30 46 23 2 352 4 344 337 337 330 324 318 320 318 315 317 354 340 322 321 317 311